Theta_e
333 328 322 318 311 314 311 315 320 317 321 325 325 326 328 333 332 326 352 347 353 358 362 361 366 367 367 365 364 362 362 362 361 362 362 361 362 363 363 362 362 359 358 357 356 356 355 355 356
325 319 318 315 309 307 311 318 317 320 323 323 326 330 327 332 345 346 346 348 356 360 363 360 365 366 367 365 364 363 362 362 362 362 362 360 362 363 363 361 361 358 357 356 356 355 355 356 356
325 318 313 310 309 307 310 319 320 321 322 322 323 328 334 339 345 345 348 350 357 359 360 363 365 365 365 365 364 363 362 362 362 363 361 361 361 363 363 361 361 358 358 357 356 355 355 355 356
316 314 313 308 307 311 314 319 322 321 322 322 321 322 334 350 348 349 349 351 355 356 357 363 364 365 365 365 364 363 363 363 362 362 361 361 362 363 363 361 360 360 358 357 356 356 356 355 355
316 313 307 307 308 313 317 320 322 320 320 321 321 322 330 349 352 351 349 351 351 353 356 360 363 364 365 365 364 363 363 362 362 361 360 361 362 361 362 360 357 357 358 358 357 357 357 357 357
309 311 305 305 309 313 316 319 321 321 321 321 318 321 334 353 349 349 350 351 351 351 357 357 362 363 363 363 363 362 362 361 361 360 360 361 361 361 359 358 357 355 357 357 357 355 356 355 355
308 309 305 308 309 312 316 319 317 321 321 320 322 317 338 348 351 351 351 350 350 351 354 353 355 362 362 362 362 361 360 360 360 359 360 361 360 360 359 358 357 356 356 357 356 356 355 355 354
311 309 306 309 308 310 318 315 316 317 320 324 321 318 327 351 355 352 351 349 349 350 351 350 351 352 356 361 361 360 360 359 359 359 360 360 360 359 358 359 358 358 357 356 357 356 356 356 355
313 304 303 307 309 312 319 313 316 317 317 320 321 324 342 354 356 351 348 347 348 347 350 349 348 348 348 349 359 359 359 359 359 359 359 356 349 354 356 353 358 358 357 357 357 356 356 355 354
307 303 305 312 314 314 317 314 314 311 312 315 318 332 344 347 352 349 346 345 346 345 348 349 348 348 347 346 354 352 352 354 353 351 353 347 347 351 348 352 358 358 356 356 357 356 355 351 342
308 302 308 310 312 315 313 313 315 312 310 313 314 324 340 343 344 350 348 347 347 347 348 348 354 357 348 348 351 347 347 346 347 349 354 351 344 349 346 348 350 352 353 346 348 346 345 341 340
305 308 308 309 311 311 309 313 311 311 313 317 317 319 318 338 343 344 350 349 349 348 349 348 351 357 357 350 351 349 348 348 346 347 356 351 346 351 348 343 348 349 346 348 347 343 345 342 341
308 308 309 310 310 310 310 308 309 311 314 315 315 316 316 319 327 346 349 354 352 349 350 350 353 358 361 366 352 352 353 350 351 351 353 347 343 351 347 349 343 345 345 345 347 346 347 345 345
313 311 310 309 309 309 307 307 309 310 313 313 313 314 315 316 320 326 348 352 354 353 352 353 353 364 360 360 365 359 359 354 353 353 354 355 349 356 345 347 343 342 343 343 343 345 346 346 345
312 308 310 309 309 307 308 304 305 310 312 311 312 313 314 315 319 321 346 352 355 354 355 355 361 361 364 361 361 360 357 355 354 354 361 359 362 364 360 349 348 347 350 349 350 348 348 345 345
306 307 302 308 309 308 306 299 306 310 310 309 311 312 313 315 317 322 336 353 357 356 357 359 356 358 364 363 361 358 356 356 355 356 356 358 359 362 363 354 353 353 354 351 350 349 346 345 344
305 299 301 304 310 308 306 301 305 310 311 310 310 312 312 314 317 323 325 339 355 359 359 359 362 358 362 367 361 362 366 358 356 357 356 363 359 358 359 355 354 358 354 354 354 353 353 349 347
299 300 302 302 308 308 306 303 307 309 310 309 311 311 312 313 315 319 324 326 340 351 361 368 364 369 370 364 367 360 358 359 358 357 358 366 363 361 363 356 360 357 351 351 351 355 351 349 346
303 302 302 306 309 307 306 306 308 309 308 309 309 309 312 314 316 318 323 325 327 339 350 363 366 371 365 359 356 356 355 358 358 360 367 365 366 362 361 356 359 358 355 357 360 359 354 348 349
301 300 301 306 309 307 305 305 308 310 309 310 310 310 312 314 315 317 323 327 330 336 341 351 360 370 367 358 359 356 358 356 358 361 366 366 362 361 359 360 358 362 353 360 358 357 348 350 350
300 299 300 301 305 307 304 301 305 309 311 312 313 313 313 314 315 316 318 326 328 330 338 342 351 358 364 361 361 361 359 361 357 359 359 361 358 358 358 357 356 360 363 358 359 356 353 348 346
296 302 302 301 301 296 304 293 302 305 307 309 311 311 312 314 316 317 319 322 328 327 333 338 348 360 362 366 358 360 350 347 352 353 354 356 357 357 357 357 357 358 359 360 356 356 356 353 343
298 302 301 301 299 299 299 296 300 306 304 307 310 312 313 315 316 316 316 321 321 327 331 338 344 356 359 362 361 354 353 349 351 355 352 353 357 356 354 356 357 354 357 355 354 353 353 353 346
304 301 301 300 298 291 296 296 297 301 304 308 311 313 314 315 316 318 319 321 322 323 326 336 344 350 358 361 360 355 353 356 350 350 350 351 353 354 355 354 354 356 352 352 351 354 351 350 349
302 298 290 288 289 289 298 295 298 305 308 309 310 312 314 316 316 317 318 318 320 321 324 333 344 352 356 357 355 352 357 355 354 354 351 351 347 349 352 355 354 351 352 352 351 351 348 344 344
299 297 291 285 287 290 298 293 298 307 309 310 312 313 315 316 317 317 318 319 318 321 325 331 342 347 350 350 350 354 354 350 352 353 353 349 349 352 354 350 350 349 347 347 348 343 346 347 343
297 294 301 294 296 292 295 299 304 308 307 309 310 312 313 316 318 319 319 320 321 323 332 337 345 343 345 348 350 351 352 353 348 352 350 346 348 345 345 346 344 343 342 341 342 338 339 341 341
301 303 293 295 287 286 294 296 297 302 305 308 309 311 319 324 321 320 319 321 324 330 339 344 343 342 344 346 344 344 346 346 343 343 341 341 341 341 340 340 340 339 339 338 338 338 337 336 336
298 296 297 298 296 289 288 294 305 305 308 308 310 320 324 324 331 331 328 332 337 340 338 339 340 339 338 340 339 339 338 337 339 338 337 338 338 338 337 336 335 335 335 335 336 334 333 331 333
302 298 299 294 292 296 294 295 312 312 314 316 321 322 323 327 331 333 334 334 334 334 336 335 335 335 338 339 336 334 335 334 333 331 330 331 329 329 328 328 327 325 325 327 325 325 325 324 325
Wind_Speed
17 16 9 9 10 10 18 21 6 1 7 3 4 8 13 6 19 4 13 10 19 21 21 18 15 16 16 17 17 16 16 16 16 15 14 13 13 13 11 11 10 10 10 11 11 11 11 11 11
14 9 8 9 11 15 14 21 9 12 10 2 4 7 7 17 16 14 14 16 21 20 19 19 14 15 15 16 17 16 16 16 16 14 14 14 13 12 12 10 10 10 10 10 10 10 10 10 10
15 10 10 9 16 18 18 20 12 8 6 4 4 5 8 12 10 12 19 19 21 20 20 18 16 15 15 15 15 16 16 16 16 15 13 13 12 11 11 10 8 9 9 9 9 9 9 9 8
8 8 9 14 21 22 24 18 8 12 10 5 1 5 8 6 7 10 18 20 20 21 20 20 16 15 15 15 15 15 16 16 15 14 13 12 12 11 9 9 7 7 8 8 8 8 8 8 7
10 9 14 18 25 25 19 21 3 9 12 11 5 5 5 7 12 19 19 19 19 20 20 20 17 16 15 15 15 15 16 15 14 14 13 13 11 11 9 8 8 7 7 8 7 6 6 6 6
10 10 16 19 25 24 23 9 6 14 14 11 9 5 8 10 13 17 18 18 18 19 20 20 17 17 16 15 15 15 15 15 15 14 13 12 11 11 10 9 8 7 7 7 7 6 5 5 5
17 15 20 25 24 24 22 10 12 17 14 12 8 7 13 13 15 16 17 17 18 18 18 18 18 16 16 15 15 16 15 15 14 14 13 13 12 11 10 9 9 9 8 9 9 9 8 8 7
15 15 28 24 22 26 11 7 11 20 15 6 3 9 15 14 11 15 17 17 17 17 18 18 17 17 15 14 14 15 16 17 17 16 15 14 13 12 11 9 9 10 9 9 9 9 9 8 7
14 18 22 29 27 22 17 11 13 14 16 8 10 10 11 10 12 16 17 17 16 16 18 18 19 17 16 16 13 13 15 15 15 14 14 13 11 12 14 12 15 12 10 10 10 9 9 9 9
19 17 29 23 24 27 18 14 14 9 15 12 12 6 4 11 13 16 18 17 19 18 19 18 18 18 17 13 15 13 12 11 11 12 13 11 11 11 12 11 12 11 10 9 9 9 10 9 10
23 27 22 24 25 25 15 13 14 15 17 17 18 15 14 12 13 16 18 18 19 19 16 19 15 15 17 14 12 9 8 9 9 13 12 11 10 9 9 8 8 8 10 8 11 10 9 12 10
29 27 23 28 21 16 17 18 19 16 16 13 11 11 6 8 13 15 17 18 20 19 18 19 18 15 14 11 11 11 10 10 9 12 12 9 7 7 8 8 10 9 8 10 9 8 10 12 12
29 26 25 24 25 22 15 24 24 21 16 13 9 11 12 10 9 13 15 18 18 19 19 19 18 15 12 10 12 11 10 10 11 11 12 11 11 7 8 7 8 8 9 10 9 10 7 9 10
22 28 26 26 23 24 22 22 22 22 17 18 18 18 15 16 13 13 15 17 18 19 19 18 19 15 15 11 10 9 9 11 11 11 12 14 10 7 9 8 9 9 8 8 8 8 8 8 10
24 27 24 22 26 26 20 28 32 24 21 22 21 20 20 19 16 13 16 17 17 18 19 19 17 18 16 15 11 10 10 11 11 10 12 14 11 9 9 9 8 8 8 8 7 7 7 8 9
15 23 26 27 24 25 22 32 26 25 25 27 25 21 21 22 20 15 14 15 14 15 18 18 17 20 18 15 13 10 10 11 10 10 10 13 13 12 9 9 9 9 8 8 8 8 9 9 9
26 22 29 27 23 23 24 35 18 27 26 29 25 22 20 20 21 18 17 16 12 18 18 19 17 19 19 15 13 12 11 10 10 10 10 13 14 14 11 10 9 6 6 5 4 5 4 3 5
24 27 26 25 22 27 27 29 21 11 21 15 19 24 25 23 24 21 19 18 19 15 11 18 16 15 16 12 11 12 11 11 11 10 11 11 10 12 10 10 8 8 9 9 10 10 9 11 9
25 28 27 23 24 22 28 25 21 22 17 18 17 20 21 24 23 23 21 19 18 15 16 13 16 15 12 12 13 12 12 11 11 10 9 8 8 8 9 11 9 9 9 9 7 6 8 10 10
27 28 29 19 13 21 22 22 23 25 26 23 20 19 21 20 22 21 23 19 17 17 14 12 14 14 13 12 10 11 10 11 11 6 4 5 9 8 9 9 8 9 9 8 8 8 9 6 3
26 27 26 27 21 16 13 22 24 25 21 23 23 23 22 20 21 20 19 19 19 15 14 15 14 13 14 14 10 6 5 2 5 4 7 7 9 10 11 11 9 5 4 6 7 8 10 7 8
26 26 25 25 23 18 27 19 23 24 24 24 23 24 24 24 23 22 23 20 18 19 17 16 16 15 15 12 12 12 10 8 7 7 5 6 12 11 13 10 8 7 8 6 6 7 7 8 9
25 21 21 23 24 22 24 18 18 21 26 28 27 25 23 23 25 25 24 23 19 18 16 14 15 15 15 14 12 11 10 9 10 5 8 6 9 9 10 9 7 5 6 7 6 7 8 7 9
17 22 21 21 19 21 25 22 20 21 23 20 20 27 25 24 24 24 23 19 18 20 19 16 15 16 14 15 12 12 11 5 8 7 8 8 9 9 9 9 7 4 6 7 6 6 8 7 8
22 15 12 14 17 19 26 26 21 15 19 21 22 21 20 23 22 23 23 22 20 19 17 16 17 17 16 16 13 14 12 9 8 10 8 9 8 8 9 5 4 5 7 5 4 5 8 8 8
28 24 12 15 17 19 26 23 26 28 7 7 7 16 20 20 22 23 23 23 22 19 17 19 19 17 14 15 13 12 12 8 7 6 4 1 4 7 7 3 1 4 6 6 6 4 4 6 5
22 20 28 26 4 10 17 22 19 13 13 15 12 11 7 10 13 20 21 21 17 17 16 18 19 14 15 13 10 10 10 8 10 10 8 7 7 5 6 5 5 6 5 4 3 3 6 5 7
17 22 21 16 10 13 15 24 16 20 15 13 20 19 7 4 16 18 16 17 17 18 16 17 17 13 14 13 12 11 14 14 13 10 11 9 8 8 6 7 6 5 4 4 3 2 4 5 6
16 10 14 14 18 12 13 9 8 16 16 20 14 14 9 9 9 10 14 17 18 18 17 16 15 16 15 16 14 14 14 13 14 12 11 10 9 9 9 9 6 6 5 4 2 2 2 3 5
26 23 24 12 11 16 15 6 14 11 9 13 15 10 9 7 9 11 15 16 14 16 15 17 17 18 17 16 17 18 17 16 14 13 12 11 10 9 8 7 6 5 5 5 5 6 7 7 8
Wind_Direction
269 241 251 256 244 229 253 238 258 191 197 74 296 263 8 29 26 50 124 132 129 135 150 158 147 150 158 158 156 152 148 147 150 151 150 148 142 134 128 127 127 130 124 121 122 127 134 138 140
290 269 238 269 243 247 228 250 169 241 69 296 236 198 222 85 71 122 138 136 138 135 149 158 148 147 154 158 154 152 149 148 151 151 151 148 141 137 135 130 131 135 130 128 131 137 143 146 143
256 250 263 231 235 248 254 220 175 192 125 242 230 280 8 83 98 131 117 138 134 146 154 139 148 147 153 158 153 151 150 150 151 150 150 146 142 137 134 133 134 140 136 133 137 144 146 146 147
229 207 249 256 246 228 254 271 180 205 166 200 315 223 113 30 129 115 141 148 140 148 157 136 143 145 150 154 151 151 149 147 147 147 148 144 141 134 132 132 131 145 140 138 142 147 153 149 149
235 259 242 235 243 257 255 248 76 247 221 192 179 193 109 89 104 127 146 146 155 148 147 150 142 144 148 152 151 148 145 142 144 147 147 144 141 136 133 137 142 154 153 149 148 162 164 170 168
231 243 240 237 242 236 248 225 205 244 231 204 218 219 101 117 133 140 148 152 154 150 138 149 144 145 149 152 149 144 142 141 145 147 146 143 142 141 144 150 158 166 165 165 160 172 185 185 194
243 232 243 248 254 241 228 178 236 232 234 209 218 220 114 152 131 145 151 156 149 150 144 154 163 151 146 151 150 147 145 145 144 146 146 146 146 145 151 161 171 176 175 179 183 183 194 199 208
242 248 257 246 252 260 242 179 226 251 234 135 119 232 181 117 157 151 157 161 153 156 148 161 167 169 171 164 155 153 154 152 151 153 152 151 151 156 162 164 182 184 184 189 194 196 204 208 216
229 251 239 243 248 245 260 189 227 252 253 190 200 266 76 131 172 165 162 164 161 164 153 165 169 169 176 169 162 157 159 157 155 159 159 158 185 181 172 197 168 186 192 198 201 203 207 214 225
222 233 242 247 253 259 248 187 231 206 227 200 199 159 163 160 183 181 175 173 171 173 163 166 172 168 175 167 159 183 177 184 187 186 180 199 201 185 199 188 171 181 198 211 215 213 217 223 243
218 240 251 241 257 265 282 243 235 199 224 218 198 190 164 192 190 199 189 183 179 174 168 167 174 166 181 172 160 181 176 183 190 192 183 214 202 194 210 183 188 206 201 218 204 210 230 231 238
232 239 243 261 261 240 265 267 222 229 248 204 209 141 189 200 195 211 199 191 182 175 174 171 176 171 196 173 167 182 183 185 188 194 186 204 219 206 206 224 195 195 209 218 231 213 222 225 243
237 248 247 251 255 260 235 248 255 238 241 254 245 173 209 216 239 211 219 201 183 178 177 181 176 174 195 190 174 192 192 187 191 185 188 206 211 208 209 225 240 218 211 216 218 239 240 228 243
247 237 248 249 243 244 243 240 248 244 251 242 239 226 227 232 218 230 213 217 180 180 181 184 178 171 189 204 180 193 190 184 198 193 192 207 209 205 214 217 229 245 241 243 240 230 239 229 247
262 259 249 241 244 245 242 247 239 241 232 242 239 236 244 242 229 215 208 215 185 176 183 186 180 177 193 199 206 199 192 220 196 208 194 191 217 215 217 221 220 234 243 251 269 276 262 260 268
245 255 247 242 230 239 238 251 238 233 238 234 232 231 232 229 231 207 212 200 191 190 185 188 187 180 189 190 197 204 212 203 211 207 201 201 207 231 203 239 234 231 233 232 228 244 239 247 253
237 242 233 245 237 217 214 245 247 256 236 226 228 233 232 222 221 211 199 200 206 195 184 190 191 189 187 197 198 208 208 217 218 209 211 189 206 211 228 224 230 256 266 305 342 319 355 336 321
235 233 240 256 231 233 217 232 246 262 248 220 222 225 231 227 215 216 207 199 191 198 223 183 188 195 179 189 205 200 212 211 223 218 216 198 198 203 205 231 245 206 232 229 237 238 247 252 257
251 268 254 236 228 251 226 238 236 227 228 230 218 229 227 226 220 209 204 207 190 191 193 189 187 182 177 193 196 208 204 207 212 220 213 200 168 190 213 233 212 208 240 244 240 253 257 267 256
241 255 262 259 257 243 239 245 235 232 217 217 211 218 223 225 222 220 198 195 190 174 187 204 193 186 192 193 202 203 211 209 211 188 164 143 184 196 234 230 234 217 224 228 255 250 262 266 350
242 242 246 258 249 227 261 258 247 239 241 230 225 217 227 232 222 213 224 195 187 184 185 194 199 192 192 204 191 181 219 270 203 193 183 175 188 195 218 219 233 242 243 243 238 241 238 259 265
243 239 243 255 248 237 205 248 238 231 233 228 226 227 219 224 224 222 209 217 193 195 191 194 196 190 188 197 183 178 191 196 210 213 205 195 207 220 196 218 222 226 238 210 231 234 237 235 248
245 243 244 237 252 258 250 252 252 238 225 217 221 220 222 218 222 217 220 207 204 191 187 188 185 189 186 182 185 174 204 189 185 169 176 178 196 210 220 200 219 181 241 241 238 245 232 230 251
232 238 241 239 229 234 238 242 242 238 228 230 216 212 214 216 220 215 213 216 202 197 192 175 176 180 178 174 166 179 197 167 154 174 169 191 195 199 199 193 194 195 228 240 244 236 250 251 268
209 209 228 225 220 234 227 228 238 262 226 224 214 209 211 209 216 215 210 207 209 206 190 162 175 172 169 170 166 173 181 151 180 180 182 188 191 185 159 188 189 213 218 269 281 261 262 266 259
210 210 214 208 220 226 222 226 226 232 204 311 266 207 216 210 209 210 210 209 199 190 186 171 168 159 143 162 162 174 145 170 170 192 129 218 57 56 101 143 38 26 19 355 9 333 305 337 323
213 205 217 239 270 298 223 206 236 214 208 203 214 217 205 229 229 227 211 196 179 172 181 166 151 140 156 149 129 128 162 127 88 81 86 72 63 80 64 62 59 50 30 3 353 299 301 314 305
186 233 215 240 218 227 229 200 205 192 194 212 208 214 150 254 217 208 190 173 168 160 145 137 128 138 128 122 106 102 98 97 88 84 83 86 96 103 101 90 83 79 69 48 336 281 27 324 300
191 193 257 245 247 253 256 218 343 162 194 185 204 124 139 195 59 46 116 123 111 104 118 120 128 117 114 105 105 103 103 106 107 109 109 100 89 81 79 90 97 89 74 49 12 332 291 308 301
210 222 183 241 225 242 270 18 338 66 108 91 83 99 110 117 126 100 98 104 116 129 125 116 115 116 125 117 107 103 103 105 104 99 96 92 85 77 67 58 58 49 40 25 1 346 342 336 331